DW4691 Weather Reports


time (UTC)temp
F
wind
direction
speed
knots
gust
knots
rain 1hr
in
rain 24hr
in
rain mn
in
humidity
%
barometer
mb
20260510144552 80 0 0.0 2.6 0.00 0.00 0.00 78 1014.8
20260510143053 80 0 0.0 1.7 0.00 0.00 0.00 82 1014.7
20260510141542 79 0 0.0 3.5 0.00 0.00 0.00 86 1014.6
20260510140042 77 0 0.0 2.6 0.00 0.00 0.00 87 1014.6
20260510134545 77 0 0.0 5.2 0.00 0.00 0.00 88 1014.6
20260510133045 76 0 0.0 1.7 0.00 0.00 0.00 89 1014.5
20260510131544 75 0 0.0 0.9 0.00 0.00 0.00 90 1014.0
20260510130042 74 0 0.0 0.0 0.00 0.00 0.00 90 1013.8
20260510124539 74 0 0.0 0.0 0.00 0.00 0.00 90 1013.6
20260510123046 74 0 0.0 0.0 0.00 0.00 0.00 91 1013.4
20260510121545 74 0 0.0 0.0 0.00 0.00 0.00 91 1013.2
20260510120044 74 0 0.0 0.0 0.00 0.00 0.00 91 1013.0
20260510114547 74 0 0.0 0.0 0.00 0.00 0.00 91 1012.5
20260510113041 73 0 0.0 0.0 0.00 0.00 0.00 91 1012.2
20260510111553 73 0 0.0 0.0 0.00 0.00 0.00 91 1011.7
20260510110046 73 0 0.0 2.6 0.00 0.00 0.00 91 1011.5
20260510104542 73 0 0.0 0.0 0.00 0.00 0.00 92 1011.3
20260510103045 73 0 0.0 0.0 0.00 0.00 0.00 92 1011.1
20260510101544 72 0 0.0 0.0 0.00 0.00 0.00 93 1011.1
20260510100045 71 0 0.0 0.0 0.00 0.00 0.00 92 1011.1
20260510094559 70 0 0.0 0.0 0.00 0.00 0.00 92 1010.9
20260510093059 70 0 0.0 0.0 0.00 0.00 0.00 91 1010.8
20260510091544 70 0 0.0 0.0 0.00 0.00 0.00 91 1010.7
20260510090053 70 0 0.0 0.0 0.00 0.00 0.00 91 1010.7
20260510084542 70 0 0.0 0.0 0.00 0.00 0.00 91 1010.8
20260510083055 71 0 0.0 0.0 0.00 0.00 0.00 91 1010.8
20260510081546 71 0 0.0 0.0 0.00 0.00 0.00 91 1010.8
20260510080056 71 0 0.0 0.0 0.00 0.00 0.00 91 1010.9
20260510074549 71 0 0.0 0.0 0.00 0.00 0.00 90 1010.7
20260510073052 71 0 0.0 0.0 0.00 0.00 0.00 90 1010.8
20260510071552 71 0 0.0 0.0 0.00 0.00 0.00 90 1010.8
20260510070047 72 0 0.0 0.0 0.00 0.00 0.00 90 1011.2
20260510064551 72 0 0.0 0.0 0.00 0.00 0.00 89 1011.2
20260510063044 73 0 0.0 0.0 0.00 0.00 0.00 89 1011.2
20260510061543 73 0 0.0 0.0 0.00 0.00 0.00 89 1011.2
20260510060045 73 0 0.0 0.0 0.00 0.00 0.00 88 1011.2
20260510054550 74 0 0.0 0.0 0.00 0.00 0.00 88 1011.1
20260510053046 74 0 0.0 0.0 0.00 0.00 0.00 87 1011.3
20260510051552 74 0 0.0 0.0 0.00 0.00 0.00 86 1011.5
20260510050044 74 0 0.0 0.0 0.00 0.00 0.00 85 1011.4
20260510044547 75 0 0.0 0.0 0.00 0.00 0.00 84 1011.3
20260510043053 75 0 0.0 0.0 0.00 0.00 0.00 83 1011.5
20260510041551 75 0 0.0 0.0 0.00 0.00 0.00 82 1011.4
20260510040051 76 0 0.0 1.7 0.00 0.00 0.00 80 1011.5
20260510034546 76 0 0.0 3.5 0.00 0.00 0.00 78 1011.4
20260510033058 77 0 0.0 5.2 0.00 0.00 0.00 77 1011.7
20260510031543 77 0 0.0 3.5 0.00 0.00 0.00 81 1011.8
20260510030059 77 0 0.0 1.7 0.00 0.00 0.00 83 1011.5
20260510024547 75 213 0.0 2.6 0.00 0.00 0.00 80 1011.0
20260510023054 75 0 0.0 0.0 0.00 0.00 0.00 78 1010.1
20260510021553 76 0 0.0 0.0 0.00 0.00 0.00 75 1009.5
20260510020044 77 0 0.0 0.0 0.00 0.00 0.00 72 1009.4
20260510014556 79 0 0.0 0.0 0.00 0.00 0.00 69 1009.1
20260510013042 80 0 0.0 4.3 0.00 0.00 0.00 65 1008.9
20260510011551 82 0 0.0 1.7 0.00 0.00 0.00 64 1008.9
20260510010052 82 0 0.0 3.5 0.00 0.00 0.00 67 1008.7
20260510004550 84 0 0.0 0.0 0.00 0.00 0.00 84 1008.4
20260510003051 84 0 0.0 0.0 0.00 0.00 0.00 83 1008.2
20260510001551 84 0 0.0 0.0 0.00 0.00 0.00 82 1008.0
20260510000051 84 0 0.0 0.0 0.00 0.00 0.00 81 1007.9
20260509234553 84 0 0.0 0.0 0.00 0.00 0.00 80 1008.0
20260509233047 84 0 0.0 0.0 0.00 0.00 0.00 78 1008.0
20260509231545 85 0 0.0 0.0 0.00 0.00 0.00 77 1007.9
20260509230057 86 0 0.0 0.0 0.00 0.00 0.00 75 1007.8
20260509224543 87 0 0.0 0.0 0.00 0.00 0.00 71 1007.6
20260509223044 88 0 0.0 0.0 0.00 0.00 0.00 69 1007.6
20260509221542 89 0 0.0 0.0 0.00 0.00 0.00 69 1007.5
20260509220050 89 0 0.0 0.0 0.00 0.00 0.00 64 1007.6
20260509214547 89 0 0.0 0.0 0.00 0.00 0.00 62 1007.5
20260509213055 89 0 0.0 0.0 0.00 0.00 0.00 63 1007.5
20260509211543 90 0 0.0 0.0 0.00 0.00 0.00 66 1007.7
20260509210053 90 0 0.0 0.0 0.00 0.00 0.00 63 1007.8
20260509204543 90 0 0.0 0.0 0.00 0.00 0.00 68 1008.0
20260509203043 90 0 0.0 0.0 0.00 0.00 0.00 67 1008.1
20260509201546 89 0 0.0 0.0 0.00 0.00 0.00 65 1008.3
20260509200046 90 0 0.0 0.0 0.00 0.00 0.00 64 1008.4
20260509194543 89 0 0.0 0.0 0.00 0.00 0.00 68 1008.6
20260509193045 88 0 0.0 0.0 0.00 0.00 0.00 66 1008.7
20260509191543 88 0 0.0 0.0 0.00 0.00 0.00 69 1008.9
20260509190045 87 0 0.0 0.0 0.00 0.00 0.00 69 1009.0
20260509184552 86 0 0.0 0.0 0.00 0.00 0.00 71 1009.3
20260509183051 85 0 0.0 0.0 0.00 0.00 0.00 76 1009.6
20260509181558 85 0 0.0 0.0 0.00 0.00 0.00 74 1009.8
20260509180050 86 0 0.0 0.0 0.00 0.00 0.00 72 1010.1
20260509174545 85 0 0.0 0.0 0.00 0.00 0.00 74 1010.1
20260509173046 85 0 0.0 0.0 0.00 0.00 0.00 75 1010.3
20260509171542 84 0 0.0 0.0 0.00 0.00 0.00 77 1010.1
20260509170052 84 0 0.0 4.3 0.00 0.00 0.00 78 1010.2
20260509164544 83 0 0.0 1.7 0.00 0.00 0.00 81 1009.8
20260509163049 81 0 0.0 0.0 0.00 0.00 0.00 83 1010.0
20260509161545 79 0 0.0 0.9 0.00 0.00 0.00 85 1010.3
20260509160046 79 0 0.0 0.0 0.00 0.00 0.00 87 1010.4
20260509154550 79 0 0.0 0.0 0.00 0.00 0.00 87 1010.8
20260509153057 78 0 0.0 0.0 0.00 0.00 0.00 87 1010.9
20260509151550 78 0 0.0 0.0 0.00 0.00 0.00 88 1010.8
20260509150058 77 0 0.0 0.0 0.00 0.00 0.00 90 1010.6